TimeAKST,TemperatureF,Dew PointF,Humidity,Sea Level PressureIn,VisibilityMPH,Wind Direction,Wind SpeedMPH,Gust SpeedMPH,PrecipitationIn,Events,Conditions,WindDirDegrees,DateUTC
12:53 AM,-29.9,-9999,N/A,30.02,10.0,Calm,Calm,-,N/A,,Clear,0,2012-12-05 09:53:00
1:53 AM,-31.0,-9999,N/A,30.02,10.0,Calm,Calm,-,N/A,,Overcast,0,2012-12-05 10:53:00
2:53 AM,-27.0,-33.0,73,30.01,10.0,Calm,Calm,-,N/A,,Overcast,0,2012-12-05 11:53:00
3:53 AM,-26.0,-33.0,69,30.01,10.0,Calm,Calm,-,N/A,,Overcast,0,2012-12-05 12:53:00
5:53 AM,-29.0,-36.0,69,30.01,10.0,Calm,Calm,-,N/A,,Overcast,0,2012-12-05 14:53:00
6:53 AM,-27.9,-34.1,73,30.00,10.0,ESE,3.5,-,0.00,Snow,Light Snow,110,2012-12-05 15:53:00
7:53 AM,-26.0,-33.0,69,30.00,9.0,SE,4.6,-,0.00,,Mostly Cloudy,130,2012-12-05 16:53:00
8:53 AM,-27.9,-34.1,73,30.01,10.0,Calm,Calm,-,N/A,,Scattered Clouds,0,2012-12-05 17:53:00
9:53 AM,-27.9,-35.0,69,30.01,10.0,Calm,Calm,-,N/A,,Partly Cloudy,0,2012-12-05 18:53:00
10:53 AM,-27.0,-32.1,77,30.01,7.0,Calm,Calm,-,N/A,,Overcast,0,2012-12-05 19:53:00
11:53 AM,-25.6,-31.0,76,29.75,10.0,Calm,Calm,-,N/A,,Overcast,0,2012-12-05 20:53:00
12:53 PM,-14.1,-20.9,71,29.99,10.0,ESE,10.4,-,N/A,,Overcast,110,2012-12-05 21:53:00
1:53 PM,-11.0,-18.9,68,29.99,10.0,ESE,16.1,23.0,N/A,,Mostly Cloudy,110,2012-12-05 22:53:00
2:53 PM,-11.0,-20.0,64,29.98,6.0,ESE,19.6,31.1,N/A,,Haze,110,2012-12-05 23:53:00
3:53 PM,-11.0,-20.0,64,29.98,4.0,ESE,25.3,33.4,N/A,,Haze,110,2012-12-06 00:53:00
4:53 PM,-11.9,-20.9,64,29.99,7.0,ESE,23.0,32.2,N/A,,Overcast,110,2012-12-06 01:53:00
5:53 PM,-11.9,-20.9,64,30.00,9.0,ESE,21.9,31.1,N/A,,Overcast,120,2012-12-06 02:53:00
6:53 PM,-11.9,-20.9,64,29.99,8.0,ESE,20.7,27.6,N/A,,Mostly Cloudy,110,2012-12-06 03:53:00
7:53 PM,-11.0,-20.9,62,29.99,10.0,ESE,20.7,28.8,N/A,,Scattered Clouds,120,2012-12-06 04:53:00
8:53 PM,-11.9,-20.9,64,30.01,10.0,SE,12.7,-,N/A,,Scattered Clouds,130,2012-12-06 05:53:00
9:53 PM,-13.0,-20.9,68,30.02,10.0,East,5.8,-,N/A,,Scattered Clouds,100,2012-12-06 06:53:00
10:53 PM,-20.0,-26.0,74,30.03,10.0,WSW,4.6,-,N/A,,Clear,240,2012-12-06 07:53:00
11:53 PM,-23.1,-27.9,78,30.04,10.0,West,3.5,-,N/A,,Clear,270,2012-12-06 08:53:00